COSMOS 1275 DEB, 29295

Orbit data source: Space-Track

COSMOS 1275 DEB, 29295 is space debris in LEO originally from a launch on Thu, 04 Jun 1981 UTC launched from the Plesetsk Missile And Space Complex (PKMTR). Debris objects in space refer to the collection of defunct objects orbiting the Earth. Examples of debris include non-operational satellites, rocket bodies, and fragments generated from explosions, collisions, or faulty payload assembly.

Loading next visibility...
Identifier
29295, 1981-053MS
Orbit
LEO
Country
Flag of CISCIS
Related business
Manufacturer
Unknown
Mission
Spacecraft
Bus & Motor
Unknown
Mass
Unknown
Launch date (UTC)
1981-06-04 (45 years ago)
Launch vehicle
Unknown
Launch site
Plesetsk Missile And Space Complex (PKMTR)
Object type
Payload
Rocket body
Debris
Shape & HBR
Unknown shape, 0.1 m
Radar Cross Section
Small (<0.1 m²)

Expand to show TLE details & history
Last TLE update: 1 week ago

TLE from 1 week ago
0 COSMOS 1275 DEB
1 29295U 81053MS  26027.33996705  .00001384  00000-0  13616-2 0  9998
2 29295  82.9578 247.5916 0112805 287.4082 199.7943 13.75426603672699
Epoch: 2026-01-27T08:09Z
TLE epoch observation values (Epoch: 2026-01-27T08:09:33.153Z)
Latitude
52.75109°
Longitude
169.27939°
Altitude
1,066.96 km
Speed
7.284 km/s
True Right ascension
03h 53m 09s
True Declination
52° 35' 32"
Sunlit
Object was in daylight at epoch
Visualization orbit readout
Latitude
Unknown
Longitude
Unknown
Altitude
Unknown
Speed
Unknown
Apparent Right ascension
Unknown
Apparent Declination
Unknown
Sunlit
N/A
Visualization observer readout
Local Sidereal Time
04:55:02
Azimuth
Unknown
Elevation
Unknown
Doppler factor
Unknown
Orbital elements
Apogee altitude
1,060.273 km
Perigee altitude
894.327 km
Semi-major axis
7,355.437 km
Eccentricity
0.01128
Inclination
82.9578°
RAAN
247.5916°
Arg. of periapsis
287.4082°
True anomaly
199.36229°
Mean anomaly
199.7943°
Eccentric anomaly
199.57773°
Mean motion
3.44057 °/min
Orbital period
104.63 mins
BSTAR
0.0013616
Loading maneuver chart data...
Computing Atmospheric mass density...
Loading historical data...
Loading historical data...
Loading historical data...
Loading historical data...
Loading historical data...
Loading historical data...
Loading historical data...

Documentation

Showing up to 5 results
|